User: anonymous   Login
Location: Igri�s
(42.2144°N, 0.4320°W)
Time: 12:29:04
(UTC+00:00)
Language:

Resurs 1-3 - Orbit

View from above orbital plane
View from above orbital plane
View from above satellite
View from above satellite

Ground track
Ground track

The orbit data is extracted from the following two-line orbital elements,

1 23342U 94074A   20294.88688450 +.00000106 +00000-0 +21093-4 0  9998
2 23342 097.9148 341.9945 0001339 054.4099 305.7237 14.79342236398419
Epoch (UTC): 20 October 2020 21:17:06
Eccentricity: 0.0001339
inclination: 97.9148°
perigee height: 630 km
apogee height: 632 km
right ascension of ascending node: 341.9945°
argument of perigee: 54.4099°
revolutions per day: 14.79342236
mean anomaly at epoch: 305.7237°
orbit number at epoch: 39841

The dashed part of the orbit path shows where the satellite is in the earth's shadow,  

DLR